User: anonymous   Login
Location: Budapest
(47.4979°N, 19.0402°E)
Time: 09:51:26
(UTC+02:00)
Language:

Tiangong 2 - Orbit

View from above orbital plane
View from above orbital plane
View from above satellite
View from above satellite

Ground track
Ground track

The orbit data is extracted from the following two-line orbital elements,

1 41765U 16057A   17289.91826389 +.00008041 +00000-0 +10431-3 0  9990
2 41765 042.7837 351.7320 0003094 347.1267 357.0807 15.59204530061970
Epoch (UTC): 16 October 2017 22:02:18
Eccentricity: 0.0003094
inclination: 42.7837°
perigee height: 388 km
apogee height: 392 km
right ascension of ascending node: 351.7320°
argument of perigee: 347.1267°
revolutions per day: 15.59204530
mean anomaly at epoch: 357.0807°
orbit number at epoch: 6197

The dashed part of the orbit path shows where the satellite is in the earth's shadow,  

DLR